Year,Month,Day,Hour,Minute,Value (Times are PST for temperature in C)
2016,05,21,00,00,13.40
2016,05,21,00,01,13.50
2016,05,21,00,02,13.50
2016,05,21,00,03,13.50
2016,05,21,00,04,13.50
2016,05,21,00,05,13.50
2016,05,21,00,06,13.50
2016,05,21,00,07,13.60
2016,05,21,00,08,13.60
2016,05,21,00,09,13.60
2016,05,21,00,10,13.60
2016,05,21,00,11,13.50
2016,05,21,00,12,13.50
2016,05,21,00,13,13.40
2016,05,21,00,14,13.40
2016,05,21,00,15,13.30
2016,05,21,00,16,13.30
2016,05,21,00,17,13.20
2016,05,21,00,18,13.20
2016,05,21,00,19,13.10
2016,05,21,00,20,13.00
2016,05,21,00,21,13.00
2016,05,21,00,22,12.90
2016,05,21,00,23,12.90
2016,05,21,00,24,12.80
2016,05,21,00,25,12.80
2016,05,21,00,26,12.80
2016,05,21,00,27,12.80
2016,05,21,00,28,12.80
2016,05,21,00,29,12.80
2016,05,21,00,30,12.80
2016,05,21,00,31,12.80
2016,05,21,00,32,12.80
2016,05,21,00,33,12.80
2016,05,21,00,34,12.90
2016,05,21,00,35,12.90
2016,05,21,00,36,12.90
2016,05,21,00,37,12.80
2016,05,21,00,38,12.80
2016,05,21,00,39,12.90
2016,05,21,00,40,12.80
2016,05,21,00,41,12.80
2016,05,21,00,42,12.80
2016,05,21,00,43,12.80
2016,05,21,00,44,12.80
2016,05,21,00,45,12.80
2016,05,21,00,46,12.80
2016,05,21,00,47,12.80
2016,05,21,00,48,12.90
2016,05,21,00,49,12.90
2016,05,21,00,50,12.90
2016,05,21,00,51,12.90
2016,05,21,00,52,12.90
2016,05,21,00,53,12.90
2016,05,21,00,54,13.00
2016,05,21,00,55,13.00
2016,05,21,00,56,13.00
2016,05,21,00,57,13.00
2016,05,21,00,58,13.10
2016,05,21,00,59,13.10
2016,05,21,01,00,13.10
2016,05,21,01,01,13.10
2016,05,21,01,02,13.10
2016,05,21,01,03,13.10
2016,05,21,01,04,13.10
2016,05,21,01,05,13.10
2016,05,21,01,06,13.10
2016,05,21,01,07,13.10
2016,05,21,01,08,13.00
2016,05,21,01,09,13.00
2016,05,21,01,10,13.00
2016,05,21,01,11,13.00
2016,05,21,01,12,13.00
2016,05,21,01,13,13.00
2016,05,21,01,14,13.00
2016,05,21,01,15,13.00
2016,05,21,01,16,13.00
2016,05,21,01,17,12.90
2016,05,21,01,18,12.90
2016,05,21,01,19,12.90
2016,05,21,01,20,12.90
2016,05,21,01,21,12.90
2016,05,21,01,22,12.80
2016,05,21,01,23,12.80
2016,05,21,01,24,12.80
2016,05,21,01,25,12.80
2016,05,21,01,26,12.80
2016,05,21,01,27,12.70
2016,05,21,01,28,12.80
2016,05,21,01,29,12.80
2016,05,21,01,30,12.80
2016,05,21,01,31,12.80
2016,05,21,01,32,12.80
2016,05,21,01,33,12.80
2016,05,21,01,34,12.80
2016,05,21,01,35,12.80
2016,05,21,01,36,12.80
2016,05,21,01,37,12.80
2016,05,21,01,38,12.80
2016,05,21,01,39,12.80
2016,05,21,01,40,12.80
2016,05,21,01,41,12.80
2016,05,21,01,42,12.80
2016,05,21,01,43,12.80
2016,05,21,01,44,12.80
2016,05,21,01,45,12.80
2016,05,21,01,46,12.80
2016,05,21,01,47,12.80
2016,05,21,01,48,12.80
2016,05,21,01,49,12.80
2016,05,21,01,50,12.80
2016,05,21,01,51,12.80
2016,05,21,01,52,12.90
2016,05,21,01,53,12.90
2016,05,21,01,54,12.90
2016,05,21,01,55,12.90
2016,05,21,01,56,12.90
2016,05,21,01,57,12.90
2016,05,21,01,58,12.90
2016,05,21,01,59,12.90
2016,05,21,02,00,12.90
2016,05,21,02,01,12.90
2016,05,21,02,02,12.90
2016,05,21,02,03,12.90
2016,05,21,02,04,12.90
2016,05,21,02,05,12.90
2016,05,21,02,06,12.90
2016,05,21,02,07,12.80
2016,05,21,02,08,12.80
2016,05,21,02,09,12.80
2016,05,21,02,10,12.80
2016,05,21,02,11,12.80
2016,05,21,02,12,12.80
2016,05,21,02,13,12.80
2016,05,21,02,14,12.90
2016,05,21,02,15,12.90
2016,05,21,02,16,12.90
2016,05,21,02,17,12.90
2016,05,21,02,18,12.90
2016,05,21,02,19,12.90
2016,05,21,02,20,12.80
2016,05,21,02,21,12.80
2016,05,21,02,22,12.80
2016,05,21,02,23,12.80
2016,05,21,02,24,12.70
2016,05,21,02,25,12.70
2016,05,21,02,26,12.70
2016,05,21,02,27,12.70
2016,05,21,02,28,12.70
2016,05,21,02,29,12.70
2016,05,21,02,30,12.70
2016,05,21,02,31,12.70
2016,05,21,02,32,12.70
2016,05,21,02,33,12.70
2016,05,21,02,34,12.60
2016,05,21,02,35,12.60
2016,05,21,02,36,12.60
2016,05,21,02,37,12.60
2016,05,21,02,38,12.60
2016,05,21,02,39,12.60
2016,05,21,02,40,12.60
2016,05,21,02,41,12.60
2016,05,21,02,42,12.60
2016,05,21,02,43,12.60
2016,05,21,02,44,12.60
2016,05,21,02,45,12.60
2016,05,21,02,46,12.60
2016,05,21,02,47,12.50
2016,05,21,02,48,12.50
2016,05,21,02,49,12.50
2016,05,21,02,50,12.40
2016,05,21,02,51,12.40
2016,05,21,02,52,12.40
2016,05,21,02,53,12.40
2016,05,21,02,54,12.40
2016,05,21,02,55,12.40
2016,05,21,02,56,12.40
2016,05,21,02,57,12.40
2016,05,21,02,58,12.40
2016,05,21,02,59,12.30
2016,05,21,03,00,12.30
2016,05,21,03,01,12.30
2016,05,21,03,02,12.30
2016,05,21,03,03,12.30
2016,05,21,03,04,12.30
2016,05,21,03,05,12.30
2016,05,21,03,06,12.30
2016,05,21,03,07,12.20
2016,05,21,03,08,12.20
2016,05,21,03,09,12.20
2016,05,21,03,10,12.20
2016,05,21,03,11,12.10
2016,05,21,03,12,12.10
2016,05,21,03,13,12.10
2016,05,21,03,14,12.00
2016,05,21,03,15,12.00
2016,05,21,03,16,12.00
2016,05,21,03,17,11.90
2016,05,21,03,18,11.90
2016,05,21,03,19,11.90
2016,05,21,03,20,11.90
2016,05,21,03,21,11.80
2016,05,21,03,22,11.80
2016,05,21,03,23,11.80
2016,05,21,03,24,11.80
2016,05,21,03,25,11.80
2016,05,21,03,26,11.80
2016,05,21,03,27,11.80
2016,05,21,03,28,11.80
2016,05,21,03,29,11.80
2016,05,21,03,30,11.80
2016,05,21,03,31,11.80
2016,05,21,03,32,11.80
2016,05,21,03,33,11.80
2016,05,21,03,34,11.80
2016,05,21,03,35,11.80
2016,05,21,03,36,11.70
2016,05,21,03,37,11.70
2016,05,21,03,38,11.70
2016,05,21,03,39,11.70
2016,05,21,03,40,11.70
2016,05,21,03,41,11.60
2016,05,21,03,42,11.60
2016,05,21,03,43,11.60
2016,05,21,03,44,11.60
2016,05,21,03,45,11.50
2016,05,21,03,46,11.50
2016,05,21,03,47,11.50
2016,05,21,03,48,11.50
2016,05,21,03,49,11.50
2016,05,21,03,50,11.40
2016,05,21,03,51,11.40
2016,05,21,03,52,11.40
2016,05,21,03,53,11.40
2016,05,21,03,54,11.40
2016,05,21,03,55,11.40
2016,05,21,03,56,11.30
2016,05,21,03,57,11.30
2016,05,21,03,58,11.30
2016,05,21,03,59,11.30
2016,05,21,04,00,11.30
2016,05,21,04,01,11.30
2016,05,21,04,02,11.30
2016,05,21,04,03,11.30
2016,05,21,04,04,11.30
2016,05,21,04,05,11.20
2016,05,21,04,06,11.20
2016,05,21,04,07,11.10
2016,05,21,04,08,11.10
2016,05,21,04,09,11.10
2016,05,21,04,10,11.10
2016,05,21,04,11,11.10
2016,05,21,04,12,11.10
2016,05,21,04,13,11.10
2016,05,21,04,14,11.10
2016,05,21,04,15,11.00
2016,05,21,04,16,11.00
2016,05,21,04,17,10.90
2016,05,21,04,18,10.90
2016,05,21,04,19,10.90
2016,05,21,04,20,10.90
2016,05,21,04,21,10.90
2016,05,21,04,22,10.90
2016,05,21,04,23,10.90
2016,05,21,04,24,10.90
2016,05,21,04,25,10.80
2016,05,21,04,26,10.80
2016,05,21,04,27,10.80
2016,05,21,04,28,10.80
2016,05,21,04,29,10.80
2016,05,21,04,30,10.80
2016,05,21,04,31,10.70
2016,05,21,04,32,10.70
2016,05,21,04,33,10.70
2016,05,21,04,34,10.70
2016,05,21,04,35,10.70
2016,05,21,04,36,10.70
2016,05,21,04,37,10.70
2016,05,21,04,38,10.70
2016,05,21,04,39,10.60
2016,05,21,04,40,10.60
2016,05,21,04,41,10.60
2016,05,21,04,42,10.60
2016,05,21,04,43,10.60
2016,05,21,04,44,10.60
2016,05,21,04,45,10.70
2016,05,21,04,46,10.70
2016,05,21,04,47,10.70
2016,05,21,04,48,10.70
2016,05,21,04,49,10.70
2016,05,21,04,50,10.70
2016,05,21,04,51,10.80
2016,05,21,04,52,10.70
2016,05,21,04,53,10.70
2016,05,21,04,54,10.70
2016,05,21,04,55,10.70
2016,05,21,04,56,10.70
2016,05,21,04,57,10.70
2016,05,21,04,58,10.70
2016,05,21,04,59,10.70
2016,05,21,05,00,10.70
2016,05,21,05,01,10.70
2016,05,21,05,02,10.70
2016,05,21,05,03,10.70
2016,05,21,05,04,10.70
2016,05,21,05,05,10.70
2016,05,21,05,06,10.70
2016,05,21,05,07,10.70
2016,05,21,05,08,10.70
2016,05,21,05,09,10.70
2016,05,21,05,10,10.70
2016,05,21,05,11,10.80
2016,05,21,05,12,10.80
2016,05,21,05,13,10.80
2016,05,21,05,14,10.80
2016,05,21,05,15,10.70
2016,05,21,05,16,10.70
2016,05,21,05,17,10.70
2016,05,21,05,18,10.70
2016,05,21,05,19,10.70
2016,05,21,05,20,10.70
2016,05,21,05,21,10.60
2016,05,21,05,22,10.60
2016,05,21,05,23,10.60
2016,05,21,05,24,10.60
2016,05,21,05,25,10.60
2016,05,21,05,26,10.60
2016,05,21,05,27,10.60
2016,05,21,05,28,10.60
2016,05,21,05,29,10.60
2016,05,21,05,30,10.50
2016,05,21,05,31,10.50
2016,05,21,05,32,10.50
2016,05,21,05,33,10.50
2016,05,21,05,34,10.40
2016,05,21,05,35,10.40
2016,05,21,05,36,10.40
2016,05,21,05,37,10.40
2016,05,21,05,38,10.40
2016,05,21,05,39,10.40
2016,05,21,05,40,10.40
2016,05,21,05,41,10.40
2016,05,21,05,42,10.40
2016,05,21,05,43,10.40
2016,05,21,05,44,10.40
2016,05,21,05,45,10.40
2016,05,21,05,46,10.40
2016,05,21,05,47,10.40
2016,05,21,05,48,10.40
2016,05,21,05,49,10.40
2016,05,21,05,50,10.40
2016,05,21,05,51,10.30
2016,05,21,05,52,10.30
2016,05,21,05,53,10.30
2016,05,21,05,54,10.30
2016,05,21,05,55,10.30
2016,05,21,05,56,10.30
2016,05,21,05,57,10.30
2016,05,21,05,58,10.30
2016,05,21,05,59,10.30
2016,05,21,06,00,10.30
2016,05,21,06,01,10.30
2016,05,21,06,02,10.30
2016,05,21,06,03,10.30
2016,05,21,06,04,10.30
2016,05,21,06,05,10.30
2016,05,21,06,06,10.30
2016,05,21,06,07,10.30
2016,05,21,06,08,10.30
2016,05,21,06,09,10.30
2016,05,21,06,10,10.30
2016,05,21,06,11,10.30
2016,05,21,06,12,10.30
2016,05,21,06,13,10.30
2016,05,21,06,14,10.30
2016,05,21,06,15,10.30
2016,05,21,06,16,10.30
2016,05,21,06,17,10.30
2016,05,21,06,18,10.30
2016,05,21,06,19,10.30
2016,05,21,06,20,10.30
2016,05,21,06,21,10.30
2016,05,21,06,22,10.30
2016,05,21,06,23,10.40
2016,05,21,06,24,10.40
2016,05,21,06,25,10.50
2016,05,21,06,26,10.50
2016,05,21,06,27,10.60
2016,05,21,06,28,10.60
2016,05,21,06,29,10.60
2016,05,21,06,30,10.60
2016,05,21,06,31,10.70
2016,05,21,06,32,10.70
2016,05,21,06,33,10.70
2016,05,21,06,34,10.80
2016,05,21,06,35,10.90
2016,05,21,06,36,10.90
2016,05,21,06,37,11.00
2016,05,21,06,38,11.00
2016,05,21,06,39,11.10
2016,05,21,06,40,11.10
2016,05,21,06,41,11.10
2016,05,21,06,42,11.20
2016,05,21,06,43,11.20
2016,05,21,06,44,11.30
2016,05,21,06,45,11.30
2016,05,21,06,46,11.30
2016,05,21,06,47,11.40
2016,05,21,06,48,11.40
2016,05,21,06,49,11.40
2016,05,21,06,50,11.50
2016,05,21,06,51,11.50
2016,05,21,06,52,11.50
2016,05,21,06,53,11.60
2016,05,21,06,54,11.60
2016,05,21,06,55,11.60
2016,05,21,06,56,11.60
2016,05,21,06,57,11.70
2016,05,21,06,58,11.70
2016,05,21,06,59,11.80
2016,05,21,07,00,11.80
2016,05,21,07,01,11.80
2016,05,21,07,02,11.80
2016,05,21,07,03,11.90
2016,05,21,07,04,11.90
2016,05,21,07,05,12.00
2016,05,21,07,06,12.00
2016,05,21,07,07,12.10
2016,05,21,07,08,12.10
2016,05,21,07,09,12.20
2016,05,21,07,10,12.20
2016,05,21,07,11,12.30
2016,05,21,07,12,12.30
2016,05,21,07,13,12.40
2016,05,21,07,14,12.40
2016,05,21,07,15,12.50
2016,05,21,07,16,12.50
2016,05,21,07,17,12.60
2016,05,21,07,18,12.60
2016,05,21,07,19,12.70
2016,05,21,07,20,12.70
2016,05,21,07,21,12.80
2016,05,21,07,22,12.80
2016,05,21,07,23,12.90
2016,05,21,07,24,12.90
2016,05,21,07,25,13.00
2016,05,21,07,26,13.00
2016,05,21,07,27,13.10
2016,05,21,07,28,13.20
2016,05,21,07,29,13.30
2016,05,21,07,30,13.30
2016,05,21,07,31,13.40
2016,05,21,07,32,13.40
2016,05,21,07,33,13.50
2016,05,21,07,34,13.50
2016,05,21,07,35,13.60
2016,05,21,07,36,13.60
2016,05,21,07,37,13.70
2016,05,21,07,38,13.70
2016,05,21,07,39,13.80
2016,05,21,07,40,13.80
2016,05,21,07,41,13.80
2016,05,21,07,42,13.90
2016,05,21,07,43,13.90
2016,05,21,07,44,13.90
2016,05,21,07,45,14.00
2016,05,21,07,46,14.10
2016,05,21,07,47,14.10
2016,05,21,07,48,14.20
2016,05,21,07,49,14.30
2016,05,21,07,50,14.30
2016,05,21,07,51,14.40
2016,05,21,07,52,14.40
2016,05,21,07,53,14.50
2016,05,21,07,54,14.60
2016,05,21,07,55,14.60
2016,05,21,07,56,14.70
2016,05,21,07,57,14.70
2016,05,21,07,58,14.70
2016,05,21,07,59,14.80
2016,05,21,08,00,14.80
2016,05,21,08,01,14.80
2016,05,21,08,02,14.80
2016,05,21,08,03,14.80
2016,05,21,08,04,14.80
2016,05,21,08,05,14.80
2016,05,21,08,06,14.80
2016,05,21,08,07,14.80
2016,05,21,08,08,14.80
2016,05,21,08,09,14.80
2016,05,21,08,10,14.90
2016,05,21,08,11,14.90
2016,05,21,08,12,14.90
2016,05,21,08,13,15.00
2016,05,21,08,14,15.00
2016,05,21,08,15,15.00
2016,05,21,08,16,15.10
2016,05,21,08,17,15.10
2016,05,21,08,18,15.00
2016,05,21,08,19,15.00
2016,05,21,08,20,15.10
2016,05,21,08,21,15.10
2016,05,21,08,22,15.10
2016,05,21,08,23,15.20
2016,05,21,08,24,15.20
2016,05,21,08,25,15.30
2016,05,21,08,26,15.40
2016,05,21,08,27,15.40
2016,05,21,08,28,15.50
2016,05,21,08,29,15.60
2016,05,21,08,30,15.60
2016,05,21,08,31,15.70
2016,05,21,08,32,15.80
2016,05,21,08,33,15.80
2016,05,21,08,34,15.90
2016,05,21,08,35,15.90
2016,05,21,08,36,16.00
2016,05,21,08,37,16.00
2016,05,21,08,38,16.10
2016,05,21,08,39,16.10
2016,05,21,08,40,16.10
2016,05,21,08,41,16.20
2016,05,21,08,42,16.20
2016,05,21,08,43,16.30
2016,05,21,08,44,16.30
2016,05,21,08,45,16.40
2016,05,21,08,46,16.40
2016,05,21,08,47,16.50
2016,05,21,08,48,16.50
2016,05,21,08,49,16.50
2016,05,21,08,50,16.60
2016,05,21,08,51,16.60
2016,05,21,08,52,16.70
2016,05,21,08,53,16.70
2016,05,21,08,54,16.70
2016,05,21,08,55,16.80
2016,05,21,08,56,16.80
2016,05,21,08,57,16.90
2016,05,21,08,58,16.90
2016,05,21,08,59,17.00
2016,05,21,09,00,17.10
2016,05,21,09,01,17.10
2016,05,21,09,02,17.10
2016,05,21,09,03,17.20
2016,05,21,09,04,17.20
2016,05,21,09,05,17.10
2016,05,21,09,06,17.10
2016,05,21,09,07,17.20
2016,05,21,09,08,17.20
2016,05,21,09,09,17.20
2016,05,21,09,10,17.30
2016,05,21,09,11,17.30
2016,05,21,09,12,17.30
2016,05,21,09,13,17.30
2016,05,21,09,14,17.30
2016,05,21,09,15,17.30
2016,05,21,09,16,17.30
2016,05,21,09,17,17.30
2016,05,21,09,18,17.30
2016,05,21,09,19,17.30
2016,05,21,09,20,17.30
2016,05,21,09,21,17.30
2016,05,21,09,22,17.30
2016,05,21,09,23,17.30
2016,05,21,09,24,17.30
2016,05,21,09,25,17.30
2016,05,21,09,26,17.30
2016,05,21,09,27,17.20
2016,05,21,09,28,17.20
2016,05,21,09,29,17.10
2016,05,21,09,30,17.10
2016,05,21,09,31,17.00
2016,05,21,09,32,17.00
2016,05,21,09,33,16.90
2016,05,21,09,34,16.90
2016,05,21,09,35,16.90
2016,05,21,09,36,16.80
2016,05,21,09,37,16.80
2016,05,21,09,38,16.70
2016,05,21,09,39,16.70
2016,05,21,09,40,16.70
2016,05,21,09,41,16.60
2016,05,21,09,42,16.60
2016,05,21,09,43,16.60
2016,05,21,09,44,16.60
2016,05,21,09,45,16.60
2016,05,21,09,46,16.60
2016,05,21,09,47,16.60
2016,05,21,09,48,16.60
2016,05,21,09,49,16.60
2016,05,21,09,50,16.60
2016,05,21,09,51,16.70
2016,05,21,09,52,16.70
2016,05,21,09,53,16.70
2016,05,21,09,54,16.70
2016,05,21,09,55,16.80
2016,05,21,09,56,16.80
2016,05,21,09,57,16.70
2016,05,21,09,58,16.70
2016,05,21,09,59,16.70
2016,05,21,10,00,16.70
2016,05,21,10,01,16.80
2016,05,21,10,02,16.80
2016,05,21,10,03,16.80
2016,05,21,10,04,16.80
2016,05,21,10,05,16.70
2016,05,21,10,06,16.70
2016,05,21,10,07,16.60
2016,05,21,10,08,16.60
2016,05,21,10,09,16.60
2016,05,21,10,10,16.60
2016,05,21,10,11,16.60
2016,05,21,10,12,16.60
2016,05,21,10,13,16.70
2016,05,21,10,14,16.70
2016,05,21,10,15,16.70
2016,05,21,10,16,16.70
2016,05,21,10,17,16.70
2016,05,21,10,18,16.80
2016,05,21,10,19,16.80
2016,05,21,10,20,16.80
2016,05,21,10,21,16.80
2016,05,21,10,22,16.90
2016,05,21,10,23,16.90
2016,05,21,10,24,17.00
2016,05,21,10,25,17.10
2016,05,21,10,26,17.10
2016,05,21,10,27,17.20
2016,05,21,10,28,17.20
2016,05,21,10,29,17.30
2016,05,21,10,30,17.30
2016,05,21,10,31,17.20
2016,05,21,10,32,17.10
2016,05,21,10,33,17.00
2016,05,21,10,34,16.90
2016,05,21,10,35,16.80
2016,05,21,10,36,16.80
2016,05,21,10,37,16.80
2016,05,21,10,38,16.80
2016,05,21,10,39,16.80
2016,05,21,10,40,16.90
2016,05,21,10,41,16.90
2016,05,21,10,42,17.00
2016,05,21,10,43,17.00
2016,05,21,10,44,17.00
2016,05,21,10,45,17.10
2016,05,21,10,46,17.10
2016,05,21,10,47,17.10
2016,05,21,10,48,17.20
2016,05,21,10,49,17.20
2016,05,21,10,50,17.30
2016,05,21,10,51,17.30
2016,05,21,10,52,17.30
2016,05,21,10,53,17.40
2016,05,21,10,54,17.50
2016,05,21,10,55,17.50
2016,05,21,10,56,17.60
2016,05,21,10,57,17.60
2016,05,21,10,58,17.70
2016,05,21,10,59,17.70
2016,05,21,11,00,17.80
2016,05,21,11,01,17.80
2016,05,21,11,02,17.80
2016,05,21,11,03,17.80
2016,05,21,11,04,17.80
2016,05,21,11,05,17.80
2016,05,21,11,06,17.90
2016,05,21,11,07,17.90
2016,05,21,11,08,18.00
2016,05,21,11,09,18.00
2016,05,21,11,10,18.00
2016,05,21,11,11,18.00
2016,05,21,11,12,17.90
2016,05,21,11,13,17.90
2016,05,21,11,14,17.90
2016,05,21,11,15,18.00
2016,05,21,11,16,18.00
2016,05,21,11,17,18.10
2016,05,21,11,18,18.10
2016,05,21,11,19,18.10
2016,05,21,11,20,18.10
2016,05,21,11,21,18.20
2016,05,21,11,22,18.20
2016,05,21,11,23,18.40
2016,05,21,11,24,18.40
2016,05,21,11,25,18.50
2016,05,21,11,26,18.60
2016,05,21,11,27,18.60
2016,05,21,11,28,18.60
2016,05,21,11,29,18.60
2016,05,21,11,30,18.60
2016,05,21,11,31,18.60
2016,05,21,11,32,18.60
2016,05,21,11,33,18.60
2016,05,21,11,34,18.70
2016,05,21,11,35,18.70
2016,05,21,11,36,18.70
2016,05,21,11,37,18.80
2016,05,21,11,38,18.90
2016,05,21,11,39,19.00
2016,05,21,11,40,19.10
2016,05,21,11,41,19.10
2016,05,21,11,42,19.20
2016,05,21,11,43,19.20
2016,05,21,11,44,19.20
2016,05,21,11,45,19.30
2016,05,21,11,46,19.30
2016,05,21,11,47,19.30
2016,05,21,11,48,19.30
2016,05,21,11,49,19.30
2016,05,21,11,50,19.30
2016,05,21,11,51,19.20
2016,05,21,11,52,19.10
2016,05,21,11,53,19.00
2016,05,21,11,54,19.00
2016,05,21,11,55,18.90
2016,05,21,11,56,19.00
2016,05,21,11,57,19.00
2016,05,21,11,58,19.00
2016,05,21,11,59,19.00
2016,05,21,12,00,19.10
2016,05,21,12,01,19.10
2016,05,21,12,02,19.20
2016,05,21,12,03,19.20
2016,05,21,12,04,19.30
2016,05,21,12,05,19.30
2016,05,21,12,06,19.30
2016,05,21,12,07,19.40
2016,05,21,12,08,19.30
2016,05,21,12,09,19.40
2016,05,21,12,10,19.40
2016,05,21,12,11,19.40
2016,05,21,12,12,19.50
2016,05,21,12,13,19.60
2016,05,21,12,14,19.60
2016,05,21,12,15,19.60
2016,05,21,12,16,19.60
2016,05,21,12,17,19.60
2016,05,21,12,18,19.60
2016,05,21,12,19,19.60
2016,05,21,12,20,19.60
2016,05,21,12,21,19.60
2016,05,21,12,22,19.60
2016,05,21,12,23,19.60
2016,05,21,12,24,19.60
2016,05,21,12,25,19.50
2016,05,21,12,26,19.50
2016,05,21,12,27,19.40
2016,05,21,12,28,19.40
2016,05,21,12,29,19.40
2016,05,21,12,30,19.40
2016,05,21,12,31,19.30
2016,05,21,12,32,19.30
2016,05,21,12,33,19.30
2016,05,21,12,34,19.40
2016,05,21,12,35,19.50
2016,05,21,12,36,19.50
2016,05,21,12,37,19.60
2016,05,21,12,38,19.60
2016,05,21,12,39,19.60
2016,05,21,12,40,19.70
2016,05,21,12,41,19.70
2016,05,21,12,42,19.80
2016,05,21,12,43,19.80
2016,05,21,12,44,19.70
2016,05,21,12,45,19.80
2016,05,21,12,46,19.80
2016,05,21,12,47,19.80
2016,05,21,12,48,19.80
2016,05,21,12,49,19.80
2016,05,21,12,50,19.70
2016,05,21,12,51,19.60
2016,05,21,12,52,19.50
2016,05,21,12,53,19.40
2016,05,21,12,54,19.40
2016,05,21,12,55,19.40
2016,05,21,12,56,19.50
2016,05,21,12,57,19.60
2016,05,21,12,58,19.70
2016,05,21,12,59,19.60
2016,05,21,13,00,19.50
2016,05,21,13,01,19.30
2016,05,21,13,02,19.10
2016,05,21,13,03,18.90
2016,05,21,13,04,18.60
2016,05,21,13,05,18.50
2016,05,21,13,06,18.40
2016,05,21,13,07,18.30
2016,05,21,13,08,18.30
2016,05,21,13,09,18.30
2016,05,21,13,10,18.20
2016,05,21,13,11,18.10
2016,05,21,13,12,18.00
2016,05,21,13,13,17.90
2016,05,21,13,14,17.80
2016,05,21,13,15,17.80
2016,05,21,13,16,17.80
2016,05,21,13,17,17.80
2016,05,21,13,18,17.80
2016,05,21,13,19,17.90
2016,05,21,13,20,17.90
2016,05,21,13,21,17.90
2016,05,21,13,22,17.90
2016,05,21,13,23,17.80
2016,05,21,13,24,17.70
2016,05,21,13,25,17.70
2016,05,21,13,26,17.70
2016,05,21,13,27,17.70
2016,05,21,13,28,17.60
2016,05,21,13,29,17.60
2016,05,21,13,30,17.60
2016,05,21,13,31,17.60
2016,05,21,13,32,17.60
2016,05,21,13,33,17.60
2016,05,21,13,34,17.60
2016,05,21,13,35,17.70
2016,05,21,13,36,17.70
2016,05,21,13,37,17.70
2016,05,21,13,38,17.90
2016,05,21,13,39,18.00
2016,05,21,13,40,18.10
2016,05,21,13,41,18.10
2016,05,21,13,42,18.20
2016,05,21,13,43,18.20
2016,05,21,13,44,18.30
2016,05,21,13,45,18.40
2016,05,21,13,46,18.50
2016,05,21,13,47,18.60
2016,05,21,13,48,18.70
2016,05,21,13,49,18.80
2016,05,21,13,50,18.90
2016,05,21,13,51,19.00
2016,05,21,13,52,19.10
2016,05,21,13,53,19.10
2016,05,21,13,54,19.20
2016,05,21,13,55,19.30
2016,05,21,13,56,19.30
2016,05,21,13,57,19.30
2016,05,21,13,58,19.30
2016,05,21,13,59,19.30
2016,05,21,14,00,19.30
2016,05,21,14,01,19.40
2016,05,21,14,02,19.40
2016,05,21,14,03,19.40
2016,05,21,14,04,19.50
2016,05,21,14,05,19.50
2016,05,21,14,06,19.50
2016,05,21,14,07,19.50
2016,05,21,14,08,19.40
2016,05,21,14,09,19.50
2016,05,21,14,10,19.40
2016,05,21,14,11,19.40
2016,05,21,14,12,19.40
2016,05,21,14,13,19.40
2016,05,21,14,14,19.40
2016,05,21,14,15,19.40
2016,05,21,14,16,19.30
2016,05,21,14,17,19.30
2016,05,21,14,18,19.30
2016,05,21,14,19,19.30
2016,05,21,14,20,19.20
2016,05,21,14,21,19.20
2016,05,21,14,22,19.20
2016,05,21,14,23,19.20
2016,05,21,14,24,19.20
2016,05,21,14,25,19.10
2016,05,21,14,26,19.10
2016,05,21,14,27,19.10
2016,05,21,14,28,19.10
2016,05,21,14,29,19.00
2016,05,21,14,30,18.90
2016,05,21,14,31,18.90
2016,05,21,14,32,18.80
2016,05,21,14,33,18.70
2016,05,21,14,34,18.70
2016,05,21,14,35,18.70
2016,05,21,14,36,18.60
2016,05,21,14,37,18.60
2016,05,21,14,38,18.60
2016,05,21,14,39,18.60
2016,05,21,14,40,18.70
2016,05,21,14,41,18.70
2016,05,21,14,42,18.80
2016,05,21,14,43,18.80
2016,05,21,14,44,18.80
2016,05,21,14,45,18.90
2016,05,21,14,46,18.80
2016,05,21,14,47,18.80
2016,05,21,14,48,18.80
2016,05,21,14,49,18.70
2016,05,21,14,50,18.60
2016,05,21,14,51,18.50
2016,05,21,14,52,18.40
2016,05,21,14,53,18.30
2016,05,21,14,54,18.30
2016,05,21,14,55,18.20
2016,05,21,14,56,18.10
2016,05,21,14,57,18.00
2016,05,21,14,58,18.00
2016,05,21,14,59,17.90
2016,05,21,15,00,17.90
2016,05,21,15,01,17.90
2016,05,21,15,02,17.90
2016,05,21,15,03,17.90
2016,05,21,15,04,18.00
2016,05,21,15,05,18.10
2016,05,21,15,06,18.10
2016,05,21,15,07,18.10
2016,05,21,15,08,18.10
2016,05,21,15,09,18.10
2016,05,21,15,10,18.10
2016,05,21,15,11,18.00
2016,05,21,15,12,17.90
2016,05,21,15,13,17.90
2016,05,21,15,14,17.90
2016,05,21,15,15,17.90
2016,05,21,15,16,18.00
2016,05,21,15,17,18.00
2016,05,21,15,18,18.10
2016,05,21,15,19,18.10
2016,05,21,15,20,18.10
2016,05,21,15,21,18.00
2016,05,21,15,22,18.00
2016,05,21,15,23,17.90
2016,05,21,15,24,17.90
2016,05,21,15,25,17.90
2016,05,21,15,26,17.90
2016,05,21,15,27,17.80
2016,05,21,15,28,17.80
2016,05,21,15,29,17.80
2016,05,21,15,30,17.80
2016,05,21,15,31,17.90
2016,05,21,15,32,17.90
2016,05,21,15,33,17.90
2016,05,21,15,34,17.90
2016,05,21,15,35,18.00
2016,05,21,15,36,18.10
2016,05,21,15,37,18.20
2016,05,21,15,38,18.30
2016,05,21,15,39,18.30
2016,05,21,15,40,18.40
2016,05,21,15,41,18.40
2016,05,21,15,42,18.40
2016,05,21,15,43,18.50
2016,05,21,15,44,18.50
2016,05,21,15,45,18.60
2016,05,21,15,46,18.60
2016,05,21,15,47,18.60
2016,05,21,15,48,18.50
2016,05,21,15,49,18.50
2016,05,21,15,50,18.40
2016,05,21,15,51,18.40
2016,05,21,15,52,18.30
2016,05,21,15,53,18.20
2016,05,21,15,54,18.10
2016,05,21,15,55,18.00
2016,05,21,15,56,17.90
2016,05,21,15,57,17.80
2016,05,21,15,58,17.80
2016,05,21,15,59,17.80
2016,05,21,16,00,17.80
2016,05,21,16,01,17.70
2016,05,21,16,02,17.60
2016,05,21,16,03,17.50
2016,05,21,16,04,17.40
2016,05,21,16,05,17.40
2016,05,21,16,06,17.30
2016,05,21,16,07,17.30
2016,05,21,16,08,17.20
2016,05,21,16,09,17.10
2016,05,21,16,10,17.00
2016,05,21,16,11,17.00
2016,05,21,16,12,17.00
2016,05,21,16,13,17.00
2016,05,21,16,14,17.00
2016,05,21,16,15,17.10
2016,05,21,16,16,17.20
2016,05,21,16,17,17.30
2016,05,21,16,18,17.40
2016,05,21,16,19,17.50
2016,05,21,16,20,17.50
2016,05,21,16,21,17.40
2016,05,21,16,22,17.40
2016,05,21,16,23,17.40
2016,05,21,16,24,17.40
2016,05,21,16,25,17.40
2016,05,21,16,26,17.50
2016,05,21,16,27,17.40
2016,05,21,16,28,17.40
2016,05,21,16,29,17.30
2016,05,21,16,30,17.30
2016,05,21,16,31,17.30
2016,05,21,16,32,17.20
2016,05,21,16,33,17.20
2016,05,21,16,34,17.20
2016,05,21,16,35,17.20
2016,05,21,16,36,17.20
2016,05,21,16,37,17.30
2016,05,21,16,38,17.30
2016,05,21,16,39,17.40
2016,05,21,16,40,17.40
2016,05,21,16,41,17.50
2016,05,21,16,42,17.50
2016,05,21,16,43,17.50
2016,05,21,16,44,17.50
2016,05,21,16,45,17.60
2016,05,21,16,46,17.60
2016,05,21,16,47,17.70
2016,05,21,16,48,17.70
2016,05,21,16,49,17.70
2016,05,21,16,50,17.70
2016,05,21,16,51,17.80
2016,05,21,16,52,17.80
2016,05,21,16,53,17.90
2016,05,21,16,54,17.90
2016,05,21,16,55,18.00
2016,05,21,16,56,18.10
2016,05,21,16,57,18.10
2016,05,21,16,58,18.10
2016,05,21,16,59,18.10
2016,05,21,17,00,18.00
2016,05,21,17,01,17.90
2016,05,21,17,02,17.90
2016,05,21,17,03,17.90
2016,05,21,17,04,17.90
2016,05,21,17,05,17.90
2016,05,21,17,06,17.90
2016,05,21,17,07,17.90
2016,05,21,17,08,17.80
2016,05,21,17,09,17.70
2016,05,21,17,10,17.50
2016,05,21,17,11,17.40
2016,05,21,17,12,17.30
2016,05,21,17,13,17.30
2016,05,21,17,14,17.20
2016,05,21,17,15,17.20
2016,05,21,17,16,17.20
2016,05,21,17,17,17.10
2016,05,21,17,18,17.20
2016,05,21,17,19,17.20